Regional Weather Roundup
Issued by NWS Northern Indiana

Home | Current Version | Previous Version | Text Only | Print | Product List | Glossary On
Versions: 1 2 3 4 5 6 7 8 9 10 11 12 13 14 15 16 17 18 19 20 21 22 23 24 25 26 27 28 29 30 31 32 33 34 35 36 37 38 39 40 41 42 43 44 45 46 47 48 49 50
000
ASUS43 KIWX 281010
RWRIWX

KIWX WEATHER ROUNDUP
NATIONAL WEATHER SERVICE NORTHERN INDIANA
500 AM EST WED JAN 28 2015

NOTE: "FAIR" INDICATES FEW OR NO CLOUDS BELOW 12,000 FEET WITH NO
SIGNIFICANT WEATHER AND/OR OBSTRUCTIONS TO VISIBILITY.

* THESE STATIONS ARE NOT UNDER NWS QUALITY CONTROL. THEY ALSO MAY NOT
  REPORT WEATHER SUCH AS PRECIPITATION OR FOG.

INZ001>027-281100-
NORTHERN INDIANA

CITY           SKY/WX    TMP DP  RH WIND       PRES   REMARKS
VALPARAISO     PTCLDY    16  13  88 E3        30.29S
MICHIGAN CITY* PTCLDY    18  10  73 CALM      30.29F
LAPORTE*       CLOUDY    15  12  88 CALM      30.29F
KNOX*          PTCLDY    15   6  69 SE3       30.29F
SOUTH BEND     PTCLDY    12   7  80 CALM      30.30
GOSHEN         PTCLDY    12   6  77 CALM      30.29S
MONTICELLO*    PTCLDY    17  15  92 CALM      30.29S
LOGANSPORT*    PTCLDY    12  10  92 CALM      30.31R
ROCHESTER*     CLEAR     14  12  92 CALM      30.31R
WARSAW*        PTCLDY    10   9  92 CALM      30.29S
ANGOLA*        CLEAR      5   1  85 CALM      30.28R
FORT WAYNE     PTCLDY     8   5  87 CALM      30.31R
HUNTINGTON*    PTCLDY     7   1  78 CALM      30.30S
PERU/GRISSOM   CLEAR     11   8  86 CALM      30.29R
MARION*        PTCLDY    11   9  89 CALM      30.31R

$$
INZ028>050-281100-
CENTRAL INDIANA

CITY           SKY/WX    TMP DP  RH WIND       PRES   REMARKS
LAFAYETTE      PTCLDY    16  14  92 CALM      30.31R
KOKOMO*        CLEAR     10   9  92 CALM      30.30R
MUNCIE*        CLEAR     10   7  87 CALM      30.29R FOG
INDIANAPOLIS   PTCLDY    17  12  80 CALM      30.30R

$$
MIZ043>046-050>051-056>058-064>065-071>073-077>080-281100-
SOUTHWEST LOWER MICHIGAN

CITY           SKY/WX    TMP DP  RH WIND       PRES   REMARKS
BATTLE CREEK   PTCLDY    12   5  73 CALM      30.29R
BENTON HARBOR  PTCLDY    11   9  92 CALM      30.30R
COLDWATER*     PTCLDY     7   4  88 CALM      30.30R
HILLSDALE*     MOCLDY     6   4  88 CALM      30.27R
HOLLAND        PTCLDY    14   9  80 CALM      30.30R
GRAND RAPIDS   PTCLDY    10   6  84 CALM      30.29R
KALAMAZOO      PTCLDY    10   5  80 CALM      30.29R
STURGIS*       PTCLDY     9   7  92 CALM      30.28S
THREE RIVERS*  FAIR      10   7  89 CALM      30.30S

$$
OHZ001>008-015>018-024>025-281100-
NORTHWEST OHIO

CITY           SKY/WX    TMP DP  RH WIND       PRES   REMARKS
WAUSEON*       FAIR       9   5  85 W3        30.30R
DEFIANCE       PTCLDY     4   0  83 W3        30.32R
FINDLAY        PTCLDY     1  -3  83 W5        30.28R WCI  -9
TOLEDO EXPRESS PTCLDY     6   4  91 W5        30.30R WCI  -3
TOLEDO METCALF PTCLDY    10   4  76 W3        30.31R
LIMA           PTCLDY     0  -6  76 CALM      30.28R HAZE

$$
AND FOR LAKE MICHIGAN COASTAL AND OPEN LAKE BUOY OBSERVATIONS

STATION/POSITION TEMP    WIND        PRES    VSBY  WAVE
                 AIR SEA DIR/SP/G                  HT/PER
                 (F)     (DEG/KT/KT) (MB)    (MI)  (FT/S)
CALUMET HARBOR    24     160/  5/  6   N/A
MICHIGAN CITY     21     120/  7/  9   N/A
SAINT JOSEPH      20     120/  4/  6 1026.8R

$$
&&


USA.gov is the U.S. government's official web portal to all federal, state and local government web resources and services.